QPF
0.00 0.00 0.00 0.00 0.00 0.00 0.00 0.00 0.00 0.00 0.00 0.00 0.00 0.00 0.00 0.00 0.00 0.00 0.00 0.00 0.00 0.00 0.01 0.00 0.00 0.00 0.00 0.00 0.00 0.00 0.00 0.00 0.00 0.00 0.00 0.00 0.00 0.00 0.00 0.00 0.01 0.00 0.00 0.00 0.00 0.00 0.00
0.00 0.00 0.00 0.00 0.00 0.00 0.00 0.00 0.00 0.00 0.00 0.00 0.00 0.00 0.00 0.00 0.00 0.00 0.00 0.00 0.00 0.00 0.00 0.01 0.01 0.01 0.01 0.00 0.00 0.00 0.00 0.00 0.00 0.00 0.00 0.00 0.00 0.01 0.01 0.00 0.01 0.00 0.00 0.01 0.01 0.00 0.00
0.00 0.00 0.00 0.00 0.00 0.00 0.00 0.00 0.00 0.00 0.00 0.00 0.00 0.00 0.00 0.00 0.00 0.00 0.00 0.00 0.00 0.00 0.00 0.00 0.01 0.01 0.01 0.00 0.00 0.00 0.00 0.00 0.00 0.00 0.00 0.00 0.00 0.02 0.02 0.01 0.00 0.00 0.00 0.01 0.01 0.01 0.00
0.00 0.00 0.00 0.00 0.00 0.00 0.00 0.00 0.00 0.00 0.00 0.00 0.00 0.00 0.00 0.00 0.00 0.00 0.00 0.00 0.00 0.00 0.00 0.00 0.00 0.01 0.00 0.00 0.00 0.00 0.00 0.00 0.00 0.00 0.00 0.00 0.01 0.03 0.02 0.01 0.00 0.00 0.01 0.00 0.00 0.01 0.01
0.00 0.00 0.00 0.00 0.00 0.00 0.00 0.00 0.00 0.00 0.00 0.00 0.00 0.00 0.00 0.00 0.00 0.00 0.00 0.00 0.00 0.00 0.00 0.00 0.01 0.00 0.00 0.00 0.00 0.00 0.00 0.00 0.00 0.00 0.01 0.02 0.03 0.02 0.03 0.04 0.05 0.03 0.00 0.00 0.00 0.02 0.02
0.00 0.00 0.00 0.00 0.00 0.00 0.00 0.00 0.00 0.00 0.00 0.00 0.00 0.00 0.00 0.00 0.00 0.00 0.00 0.00 0.00 0.00 0.00 0.01 0.01 0.01 0.00 0.00 0.00 0.00 0.00 0.00 0.00 0.00 0.01 0.03 0.02 0.01 0.02 0.06 0.04 0.03 0.00 0.00 0.00 0.02 0.04
0.00 0.00 0.00 0.00 0.00 0.00 0.00 0.00 0.00 0.00 0.00 0.00 0.00 0.00 0.00 0.00 0.00 0.00 0.00 0.00 0.00 0.00 0.00 0.00 0.00 0.00 0.00 0.00 0.00 0.00 0.00 0.00 0.00 0.00 0.00 0.00 0.00 0.00 0.00 0.01 0.03 0.02 0.00 0.00 0.00 0.05 0.06
0.00 0.00 0.00 0.00 0.00 0.00 0.00 0.00 0.00 0.00 0.00 0.00 0.00 0.00 0.00 0.00 0.00 0.00 0.00 0.00 0.00 0.00 0.00 0.00 0.00 0.00 0.00 0.00 0.00 0.00 0.00 0.00 0.00 0.00 0.00 0.00 0.00 0.00 0.00 0.00 0.02 0.10 0.08 0.01 0.00 0.02 0.07
0.00 0.00 0.00 0.00 0.00 0.00 0.00 0.00 0.00 0.00 0.00 0.00 0.00 0.00 0.00 0.00 0.00 0.00 0.00 0.00 0.00 0.00 0.00 0.00 0.00 0.00 0.00 0.00 0.00 0.00 0.00 0.00 0.00 0.00 0.00 0.00 0.00 0.00 0.00 0.00 0.00 0.01 0.06 0.02 0.00 0.00 0.05
0.00 0.00 0.00 0.00 0.00 0.00 0.00 0.00 0.00 0.01 0.00 0.00 0.00 0.00 0.00 0.00 0.00 0.00 0.00 0.00 0.00 0.00 0.00 0.00 0.00 0.00 0.00 0.00 0.00 0.00 0.00 0.00 0.00 0.00 0.00 0.00 0.00 0.00 0.00 0.00 0.00 0.00 0.00 0.00 0.01 0.03 0.01
0.00 0.00 0.00 0.00 0.00 0.00 0.00 0.00 0.01 0.01 0.00 0.00 0.00 0.00 0.00 0.00 0.00 0.00 0.00 0.00 0.00 0.00 0.00 0.00 0.00 0.00 0.00 0.00 0.00 0.00 0.00 0.00 0.00 0.00 0.00 0.00 0.00 0.00 0.00 0.00 0.00 0.00 0.00 0.00 0.00 0.06 0.06
0.00 0.00 0.00 0.01 0.01 0.01 0.01 0.01 0.01 0.01 0.00 0.00 0.00 0.00 0.00 0.00 0.00 0.00 0.00 0.00 0.00 0.01 0.01 0.00 0.00 0.00 0.00 0.00 0.00 0.00 0.00 0.00 0.00 0.00 0.00 0.00 0.00 0.00 0.00 0.00 0.00 0.01 0.02 0.02 0.02 0.06 0.15
0.00 0.00 0.01 0.01 0.01 0.01 0.01 0.02 0.02 0.01 0.01 0.00 0.00 0.00 0.00 0.00 0.00 0.00 0.00 0.00 0.01 0.01 0.00 0.00 0.00 0.00 0.00 0.00 0.00 0.00 0.00 0.00 0.00 0.00 0.01 0.00 0.00 0.00 0.00 0.00 0.00 0.03 0.09 0.19 0.21 0.18 0.08
0.00 0.00 0.00 0.00 0.01 0.01 0.01 0.01 0.02 0.01 0.01 0.01 0.00 0.00 0.00 0.00 0.00 0.00 0.00 0.01 0.01 0.00 0.00 0.00 0.00 0.00 0.00 0.00 0.00 0.00 0.00 0.00 0.00 0.00 0.00 0.00 0.00 0.00 0.00 0.00 0.00 0.01 0.04 0.14 0.11 0.04 0.00
0.00 0.01 0.01 0.00 0.01 0.01 0.00 0.00 0.01 0.01 0.01 0.01 0.01 0.00 0.00 0.00 0.00 0.00 0.04 0.06 0.00 0.02 0.03 0.02 0.00 0.00 0.00 0.00 0.00 0.00 0.00 0.00 0.00 0.00 0.00 0.00 0.00 0.00 0.00 0.00 0.01 0.07 0.05 0.02 0.06 0.01 0.00
0.01 0.02 0.01 0.01 0.01 0.00 0.00 0.01 0.01 0.01 0.02 0.03 0.01 0.00 0.00 0.00 0.00 0.00 0.01 0.05 0.08 0.06 0.02 0.02 0.03 0.00 0.01 0.01 0.03 0.04 0.01 0.00 0.00 0.00 0.00 0.00 0.00 0.00 0.00 0.00 0.02 0.04 0.04 0.04 0.10 0.09 0.01
0.01 0.01 0.01 0.01 0.00 0.00 0.00 0.01 0.01 0.02 0.05 0.02 0.00 0.00 0.00 0.00 0.00 0.00 0.00 0.01 0.08 0.08 0.03 0.02 0.04 0.06 0.03 0.02 0.02 0.07 0.08 0.03 0.01 0.00 0.00 0.00 0.01 0.00 0.00 0.00 0.00 0.03 0.16 0.21 0.09 0.03 0.00
0.01 0.01 0.01 0.00 0.01 0.00 0.01 0.01 0.01 0.04 0.06 0.01 0.00 0.00 0.00 0.00 0.00 0.00 0.00 0.01 0.00 0.00 0.01 0.01 0.07 0.18 0.13 0.07 0.04 0.01 0.03 0.05 0.07 0.05 0.02 0.01 0.04 0.01 0.00 0.00 0.00 0.00 0.02 0.08 0.06 0.10 0.01
0.01 0.01 0.01 0.01 0.01 0.01 0.01 0.01 0.02 0.04 0.08 0.05 0.04 0.01 0.00 0.00 0.00 0.00 0.00 0.00 0.00 0.00 0.00 0.01 0.02 0.03 0.06 0.04 0.05 0.03 0.04 0.05 0.03 0.06 0.12 0.10 0.16 0.06 0.01 0.00 0.00 0.00 0.00 0.02 0.03 0.02 0.02
0.01 0.01 0.01 0.01 0.01 0.01 0.01 0.01 0.02 0.03 0.06 0.08 0.06 0.03 0.00 0.00 0.00 0.00 0.00 0.00 0.00 0.00 0.00 0.00 0.01 0.00 0.00 0.00 0.01 0.01 0.00 0.00 0.00 0.01 0.07 0.17 0.09 0.02 0.00 0.00 0.00 0.00 0.00 0.00 0.01 0.08 0.03
0.00 0.00 0.01 0.01 0.01 0.01 0.01 0.01 0.01 0.03 0.07 0.07 0.06 0.01 0.00 0.00 0.00 0.00 0.01 0.00 0.00 0.00 0.00 0.00 0.00 0.00 0.00 0.00 0.00 0.00 0.00 0.00 0.00 0.00 0.03 0.19 0.09 0.01 0.00 0.00 0.00 0.00 0.00 0.00 0.00 0.00 0.00
0.00 0.00 0.00 0.00 0.01 0.02 0.02 0.04 0.04 0.02 0.12 0.04 0.06 0.06 0.05 0.01 0.00 0.02 0.02 0.01 0.00 0.00 0.00 0.00 0.00 0.00 0.00 0.00 0.00 0.00 0.00 0.00 0.00 0.00 0.00 0.08 0.09 0.02 0.01 0.00 0.00 0.00 0.00 0.00 0.00 0.00 0.00
0.00 0.00 0.00 0.00 0.01 0.01 0.02 0.02 0.03 0.04 0.12 0.11 0.09 0.09 0.12 0.04 0.01 0.04 0.01 0.00 0.00 0.00 0.00 0.00 0.00 0.00 0.00 0.00 0.00 0.00 0.00 0.00 0.00 0.00 0.00 0.01 0.05 0.08 0.04 0.00 0.00 0.01 0.00 0.00 0.00 0.00 0.00
0.00 0.00 0.00 0.01 0.01 0.02 0.02 0.03 0.03 0.02 0.10 0.10 0.06 0.13 0.18 0.05 0.02 0.02 0.00 0.00 0.00 0.00 0.00 0.00 0.00 0.00 0.00 0.00 0.00 0.00 0.00 0.00 0.00 0.00 0.00 0.00 0.03 0.11 0.06 0.03 0.06 0.01 0.00 0.00 0.00 0.00 0.00
0.00 0.00 0.00 0.00 0.01 0.01 0.01 0.02 0.02 0.02 0.04 0.11 0.05 0.09 0.13 0.06 0.00 0.00 0.00 0.00 0.00 0.00 0.01 0.00 0.00 0.00 0.00 0.00 0.01 0.00 0.00 0.00 0.00 0.00 0.00 0.00 0.01 0.08 0.08 0.04 0.01 0.00 0.00 0.00 0.00 0.00 0.00
0.00 0.00 0.00 0.00 0.00 0.01 0.01 0.02 0.02 0.02 0.03 0.12 0.05 0.06 0.08 0.12 0.02 0.00 0.01 0.00 0.01 0.02 0.00 0.00 0.00 0.00 0.00 0.00 0.02 0.01 0.00 0.00 0.00 0.00 0.00 0.00 0.00 0.02 0.05 0.06 0.01 0.00 0.00 0.00 0.00 0.00 0.00
0.00 0.00 0.00 0.00 0.01 0.01 0.01 0.02 0.02 0.03 0.05 0.08 0.03 0.07 0.08 0.07 0.01 0.00 0.02 0.01 0.01 0.00 0.01 0.00 0.00 0.00 0.00 0.02 0.03 0.01 0.00 0.00 0.00 0.00 0.01 0.03 0.05 0.04 0.01 0.05 0.01 0.00 0.00 0.00 0.00 0.00 0.00
0.00 0.00 0.00 0.00 0.00 0.00 0.01 0.02 0.03 0.02 0.05 0.08 0.02 0.06 0.08 0.06 0.01 0.00 0.00 0.00 0.00 0.00 0.00 0.00 0.01 0.00 0.01 0.05 0.04 0.05 0.06 0.08 0.02 0.00 0.01 0.04 0.04 0.03 0.02 0.03 0.02 0.00 0.00 0.00 0.00 0.00 0.00
0.00 0.00 0.01 0.01 0.01 0.01 0.01 0.02 0.03 0.03 0.04 0.08 0.03 0.02 0.04 0.03 0.01 0.00 0.00 0.00 0.00 0.00 0.00 0.00 0.01 0.00 0.00 0.01 0.07 0.07 0.03 0.01 0.01 0.01 0.00 0.03 0.04 0.01 0.00 0.01 0.00 0.00 0.00 0.00 0.00 0.00 0.00
MSLP
1026.12 1025.91 1025.77 1025.54 1025.34 1025.01 1024.66 1024.35 1024.05 1023.69 1023.36 1022.95 1022.57 1022.20 1021.78 1021.37 1020.90 1020.35 1019.83 1019.34 1018.79 1018.30 1018.02 1017.78 1017.52 1017.37 1017.27 1016.98 1014.29 1012.57 1012.50 1012.30 1012.89 1013.59 1014.23 1014.82 1015.33 1015.51 1015.39 1015.39 1015.70 1015.54 1014.79 1014.34 1014.11 1014.05 1013.84
1026.20 1026.01 1025.80 1025.58 1025.38 1025.23 1024.95 1024.65 1024.24 1023.85 1023.46 1023.00 1022.57 1022.14 1021.88 1021.42 1020.90 1020.32 1019.75 1019.18 1018.58 1018.08 1017.71 1017.58 1017.30 1017.13 1017.13 1016.09 1012.83 1012.46 1012.48 1012.71 1012.74 1013.40 1013.98 1014.53 1014.71 1014.89 1015.01 1015.00 1015.12 1014.48 1014.38 1014.12 1014.01 1013.72 1013.77
1026.50 1026.29 1026.15 1025.84 1025.63 1025.37 1025.08 1024.77 1024.46 1024.07 1023.65 1023.13 1022.70 1022.24 1021.84 1021.25 1020.71 1020.11 1019.47 1018.81 1018.17 1017.63 1017.35 1017.15 1016.89 1016.67 1015.85 1013.10 1012.41 1012.16 1012.34 1012.38 1012.50 1012.87 1013.56 1013.87 1014.24 1014.61 1014.74 1014.70 1014.07 1014.31 1014.45 1014.08 1013.68 1013.48 1013.49
1026.71 1026.57 1026.36 1026.09 1025.83 1025.64 1025.38 1025.05 1024.67 1024.21 1023.71 1023.24 1022.83 1022.42 1021.88 1021.29 1020.62 1019.90 1019.03 1018.23 1017.43 1016.97 1016.64 1016.41 1016.21 1015.95 1013.68 1012.52 1012.00 1012.01 1012.09 1012.41 1012.37 1012.44 1012.80 1013.18 1013.65 1014.35 1014.60 1014.22 1013.89 1014.19 1014.46 1014.10 1012.76 1013.06 1013.18
1027.02 1026.85 1026.63 1026.42 1026.07 1025.69 1025.38 1025.09 1024.72 1024.19 1023.66 1023.18 1022.78 1022.32 1021.75 1020.99 1020.28 1019.53 1018.50 1017.03 1015.62 1015.14 1015.48 1015.67 1015.61 1015.30 1013.23 1011.81 1011.41 1010.77 1011.45 1011.70 1012.11 1012.47 1012.86 1013.08 1013.64 1013.88 1014.13 1014.18 1014.16 1013.79 1013.44 1013.38 1013.12 1012.69 1012.73
1027.36 1027.00 1026.82 1026.56 1026.24 1025.90 1025.57 1025.20 1024.74 1024.17 1023.66 1023.25 1022.76 1022.19 1021.53 1020.71 1019.84 1018.94 1017.74 1015.82 1014.62 1014.11 1014.40 1014.80 1014.88 1015.60 1012.95 1010.76 1010.23 1009.96 1010.22 1010.98 1011.81 1012.45 1013.08 1013.23 1013.37 1013.09 1013.45 1013.29 1012.57 1013.11 1013.37 1013.11 1012.60 1012.32 1012.43
1027.54 1027.32 1027.08 1026.78 1026.35 1025.95 1025.55 1025.15 1024.51 1024.14 1023.69 1023.34 1022.70 1022.10 1021.57 1020.53 1019.75 1018.82 1017.55 1015.88 1015.49 1015.04 1014.81 1014.18 1013.60 1012.22 1011.04 1009.97 1009.44 1009.71 1009.90 1010.79 1011.48 1012.17 1012.41 1012.60 1012.52 1011.95 1011.98 1012.40 1012.90 1013.29 1013.11 1012.67 1011.74 1011.46 1011.47
1027.68 1027.32 1027.08 1026.84 1026.51 1026.11 1025.63 1025.11 1024.69 1024.12 1023.63 1023.11 1022.59 1022.08 1021.26 1020.53 1019.48 1018.66 1018.60 1018.29 1017.80 1018.07 1014.80 1013.34 1012.10 1011.53 1010.44 1010.19 1010.14 1009.51 1009.72 1010.60 1011.13 1011.20 1012.11 1012.70 1011.16 1011.68 1012.31 1012.45 1012.70 1012.94 1012.77 1012.58 1011.88 1011.28 1011.21
1027.51 1027.16 1026.90 1026.70 1026.39 1025.84 1025.43 1024.97 1024.48 1023.90 1023.44 1022.96 1022.31 1021.70 1021.07 1020.36 1019.29 1019.16 1019.48 1018.58 1018.00 1017.72 1015.99 1010.64 1009.87 1009.37 1009.23 1009.81 1009.02 1009.40 1009.68 1009.86 1010.43 1010.91 1011.28 1011.06 1010.75 1011.44 1011.95 1012.23 1012.52 1012.22 1012.41 1012.62 1012.27 1011.52 1010.82
1027.60 1027.37 1026.97 1026.56 1026.10 1025.75 1025.33 1024.76 1024.28 1023.76 1023.35 1022.86 1022.25 1021.55 1021.00 1020.32 1019.79 1019.59 1018.87 1018.43 1018.22 1017.94 1016.29 1011.00 1009.16 1007.99 1008.01 1008.66 1008.50 1007.83 1008.66 1009.36 1010.01 1010.17 1011.08 1011.06 1011.05 1011.22 1011.48 1011.45 1011.80 1011.56 1011.88 1012.14 1012.19 1012.33 1011.17
1027.56 1027.27 1026.97 1026.48 1026.08 1025.52 1025.11 1024.68 1024.17 1023.72 1023.30 1022.76 1022.32 1021.53 1020.99 1020.30 1020.34 1019.83 1018.84 1018.34 1018.01 1017.77 1016.22 1010.04 1008.23 1007.14 1007.30 1007.90 1007.23 1006.78 1007.24 1008.52 1008.61 1009.65 1010.47 1009.83 1010.29 1010.66 1010.68 1010.14 1011.01 1010.79 1011.24 1011.67 1011.86 1011.73 1011.18
1027.50 1027.17 1026.80 1026.25 1025.84 1025.49 1024.99 1024.50 1024.07 1023.60 1023.13 1022.66 1022.03 1021.42 1020.75 1020.36 1020.51 1019.45 1018.61 1018.19 1018.00 1017.94 1014.31 1009.97 1008.01 1007.61 1008.17 1007.86 1007.44 1007.24 1007.71 1008.11 1008.60 1009.53 1009.62 1009.51 1009.60 1009.67 1009.22 1009.53 1010.00 1010.36 1011.30 1011.39 1011.46 1011.44 1010.28
1027.30 1026.76 1026.48 1026.04 1025.55 1025.13 1024.49 1024.11 1023.79 1023.25 1022.80 1022.31 1021.82 1021.19 1020.47 1020.32 1020.25 1019.30 1018.69 1018.49 1018.29 1016.35 1012.70 1010.58 1009.45 1008.98 1008.63 1008.15 1007.82 1007.67 1007.91 1008.17 1008.10 1009.04 1009.12 1009.56 1009.21 1008.93 1008.87 1009.32 1009.61 1010.42 1010.97 1011.14 1010.63 1009.73 1008.25
1027.06 1026.52 1026.04 1025.69 1025.17 1024.85 1024.21 1023.80 1023.38 1023.06 1022.50 1022.05 1021.71 1021.23 1020.03 1019.75 1019.40 1019.20 1019.25 1019.22 1017.68 1015.09 1013.87 1011.85 1011.49 1010.05 1009.31 1008.31 1008.01 1007.68 1007.97 1008.23 1008.40 1008.48 1008.72 1009.04 1008.69 1008.24 1007.53 1007.45 1008.23 1008.94 1009.72 1009.59 1008.71 1008.05 1008.27
1026.86 1026.41 1026.05 1025.59 1025.25 1024.70 1023.97 1023.60 1023.20 1022.65 1022.21 1021.84 1021.52 1021.04 1020.30 1019.69 1019.40 1019.36 1019.92 1019.50 1017.85 1017.00 1016.35 1014.68 1012.53 1011.26 1010.04 1009.39 1009.24 1008.27 1008.07 1008.00 1007.79 1008.04 1008.31 1008.17 1007.72 1006.40 1005.89 1006.28 1007.22 1007.95 1008.20 1008.44 1008.60 1008.18 1007.61
1026.70 1026.24 1025.71 1025.39 1024.77 1024.35 1023.88 1023.46 1022.96 1022.39 1021.90 1021.60 1021.72 1021.55 1020.26 1019.24 1019.17 1019.71 1020.36 1019.67 1018.97 1018.30 1017.59 1016.04 1014.61 1013.11 1012.02 1011.12 1010.60 1009.32 1008.38 1007.78 1007.66 1007.27 1007.35 1007.26 1007.05 1005.91 1005.28 1006.07 1006.25 1006.45 1007.01 1008.19 1008.08 1007.51 1006.99
1026.40 1025.96 1025.52 1025.07 1024.43 1024.11 1023.72 1023.20 1022.79 1022.18 1021.72 1021.43 1022.15 1022.03 1019.59 1019.09 1019.28 1020.08 1020.56 1019.85 1019.02 1018.33 1018.04 1017.47 1016.08 1014.91 1013.54 1012.64 1011.70 1010.87 1009.67 1009.33 1008.94 1007.77 1007.25 1007.36 1007.27 1006.33 1005.71 1005.22 1005.12 1006.02 1006.35 1006.62 1006.86 1006.75 1006.28
1026.25 1025.92 1025.44 1024.91 1024.47 1023.90 1023.46 1023.00 1022.57 1022.12 1021.75 1021.73 1022.09 1021.93 1019.97 1019.25 1020.17 1020.67 1020.62 1019.94 1019.31 1018.13 1017.45 1017.08 1016.56 1016.11 1015.59 1014.74 1013.32 1011.80 1011.08 1010.34 1011.23 1009.79 1008.40 1007.55 1007.15 1006.38 1005.53 1004.61 1004.47 1004.71 1005.22 1006.06 1005.89 1006.12 1005.90
1025.97 1025.54 1025.04 1024.60 1024.20 1023.68 1023.12 1022.77 1022.41 1021.99 1021.45 1021.87 1021.85 1021.40 1020.16 1020.02 1020.79 1021.12 1020.63 1019.96 1019.16 1018.22 1017.57 1017.17 1016.76 1016.34 1016.45 1016.06 1015.33 1014.07 1013.15 1011.57 1011.61 1011.33 1010.30 1009.51 1007.36 1006.52 1005.78 1005.10 1004.34 1004.35 1004.63 1004.80 1005.06 1005.12 1004.67
1025.88 1025.30 1024.72 1024.23 1023.80 1023.45 1022.99 1022.46 1021.97 1021.85 1021.41 1021.96 1021.69 1021.79 1021.03 1020.76 1021.04 1021.28 1021.16 1020.05 1019.11 1018.31 1017.64 1017.24 1017.00 1016.68 1016.43 1016.28 1015.96 1014.92 1014.22 1013.03 1012.61 1011.78 1010.63 1010.07 1008.28 1006.71 1005.55 1004.06 1003.58 1003.76 1003.57 1003.97 1004.19 1004.53 1004.31
1025.64 1024.97 1024.52 1023.96 1023.52 1023.04 1022.63 1022.23 1021.74 1021.28 1021.27 1022.02 1021.56 1021.38 1021.27 1021.35 1021.04 1021.00 1020.82 1020.15 1019.19 1018.61 1017.77 1017.37 1017.17 1016.95 1016.90 1016.64 1016.01 1015.29 1014.77 1013.69 1012.37 1011.57 1011.32 1011.28 1009.43 1007.66 1006.13 1004.72 1003.75 1002.90 1002.64 1002.89 1003.34 1003.12 1003.34
1025.44 1024.79 1024.24 1023.64 1023.15 1022.80 1022.47 1022.03 1021.67 1021.09 1020.89 1021.61 1021.59 1020.93 1020.86 1020.56 1020.63 1020.67 1020.17 1019.50 1018.89 1018.30 1018.30 1017.53 1017.32 1017.06 1016.99 1016.93 1016.68 1015.84 1015.66 1015.14 1014.14 1012.68 1012.48 1012.25 1010.82 1009.04 1006.42 1004.65 1003.68 1002.81 1002.09 1001.92 1002.17 1002.25 1001.88
1025.02 1024.45 1023.85 1023.25 1022.92 1022.40 1021.99 1021.71 1021.43 1020.80 1020.70 1020.92 1020.43 1020.64 1020.37 1019.88 1020.22 1020.31 1019.43 1018.89 1018.47 1018.14 1017.61 1017.30 1017.18 1016.98 1016.47 1016.05 1015.98 1015.69 1015.46 1015.02 1014.46 1014.19 1013.14 1013.11 1011.78 1009.77 1006.83 1004.99 1003.64 1002.49 1000.44 1001.23 1000.95 1000.96 1000.79
1024.50 1024.06 1023.58 1023.01 1022.61 1022.19 1021.58 1021.24 1020.93 1020.55 1020.29 1020.73 1020.45 1020.30 1019.73 1019.43 1019.48 1019.13 1018.74 1018.44 1018.11 1017.75 1017.55 1017.01 1017.11 1016.85 1015.50 1015.77 1015.67 1015.23 1014.84 1013.96 1012.72 1012.40 1012.57 1012.31 1011.74 1010.61 1007.64 1005.58 1002.92 999.83 999.25 999.73 999.85 999.60 999.92
1024.10 1023.74 1023.24 1022.62 1022.19 1021.85 1021.44 1020.93 1020.40 1020.04 1019.57 1019.81 1019.73 1019.86 1019.12 1018.96 1018.60 1018.12 1018.08 1017.93 1017.56 1017.38 1017.27 1016.86 1016.08 1015.59 1015.63 1016.08 1015.86 1015.01 1013.96 1012.73 1010.46 1009.65 1010.30 1010.74 1011.22 1010.28 1008.25 1005.51 1003.00 1000.46 999.24 998.79 999.15 998.48 998.98
1024.03 1023.59 1023.06 1022.46 1021.98 1021.52 1020.82 1020.34 1020.02 1019.53 1019.06 1018.91 1019.03 1018.99 1019.08 1018.77 1017.74 1017.64 1017.64 1017.38 1017.43 1017.22 1016.95 1016.25 1015.59 1015.45 1015.81 1015.98 1015.84 1014.91 1014.06 1012.45 1010.45 1008.85 1008.63 1009.80 1010.44 1009.83 1007.96 1005.87 1003.24 1000.47 998.98 998.41 998.94 998.56 998.34
1023.76 1023.26 1022.79 1022.33 1021.70 1021.27 1020.54 1020.00 1019.62 1019.02 1018.48 1018.46 1018.51 1018.46 1018.45 1018.19 1017.02 1017.27 1017.17 1017.06 1016.72 1016.93 1016.89 1016.46 1016.11 1015.78 1015.49 1015.50 1015.14 1014.47 1013.62 1012.89 1010.97 1009.34 1009.03 1009.62 1009.77 1008.35 1007.46 1006.08 1003.45 1001.23 1000.65 999.76 999.96 999.68 998.51
1023.42 1022.80 1022.32 1021.92 1021.46 1020.74 1020.10 1019.56 1019.12 1018.40 1017.90 1017.76 1017.56 1017.54 1017.95 1017.49 1016.49 1016.43 1016.07 1016.06 1016.20 1016.14 1016.26 1016.10 1016.21 1015.75 1015.77 1015.32 1014.62 1013.76 1012.86 1011.41 1010.77 1009.40 1008.30 1007.99 1007.72 1007.46 1007.13 1005.53 1004.02 1002.17 1001.35 1001.89 1001.61 1000.23 999.73
1023.04 1022.37 1022.06 1021.54 1020.90 1020.19 1019.63 1018.89 1018.32 1017.78 1017.20 1016.70 1017.05 1016.66 1016.88 1017.19 1016.20 1015.35 1014.48 1014.30 1014.57 1014.05 1014.99 1015.44 1015.23 1015.14 1014.60 1014.43 1014.06 1013.55 1012.79 1012.16 1010.86 1009.68 1008.17 1007.85 1006.49 1006.12 1005.00 1003.68 1002.91 1002.77 1002.87 1002.56 1002.55 1002.07 1000.91
Thickness
5592 5590 5588 5587 5585 5584 5584 5583 5582 5582 5582 5582 5582 5583 5585 5586 5589 5590 5591 5592 5593 5595 5594 5592 5591 5589 5590 5590 5613 5619 5620 5618 5611 5604 5596 5589 5582 5578 5579 5577 5571 5568 5575 5577 5581 5585 5591
5586 5583 5582 5580 5578 5576 5575 5574 5574 5574 5573 5574 5575 5576 5576 5578 5581 5583 5584 5586 5588 5587 5586 5583 5581 5580 5577 5581 5616 5612 5610 5605 5602 5595 5587 5581 5577 5574 5571 5570 5564 5567 5568 5569 5567 5575 5578
5576 5575 5571 5570 5568 5566 5565 5565 5565 5565 5566 5568 5568 5569 5569 5571 5572 5573 5575 5577 5578 5578 5577 5574 5572 5570 5573 5605 5603 5601 5599 5595 5592 5588 5578 5577 5572 5565 5563 5562 5566 5560 5554 5557 5561 5568 5568
5567 5565 5563 5562 5560 5557 5556 5556 5556 5556 5558 5558 5559 5559 5559 5560 5562 5564 5568 5570 5570 5569 5568 5566 5563 5562 5575 5595 5592 5591 5583 5580 5581 5580 5577 5573 5567 5558 5554 5557 5557 5547 5541 5539 5566 5564 5565
5557 5556 5554 5552 5551 5550 5550 5550 5549 5550 5550 5549 5548 5548 5548 5550 5551 5552 5556 5563 5569 5569 5561 5555 5554 5550 5564 5582 5581 5582 5575 5573 5567 5566 5563 5562 5554 5551 5548 5545 5540 5544 5543 5541 5550 5554 5557
5548 5547 5545 5544 5543 5542 5541 5540 5540 5540 5540 5539 5537 5538 5538 5539 5541 5543 5548 5557 5562 5562 5557 5547 5545 5533 5553 5570 5574 5573 5568 5564 5555 5549 5544 5545 5545 5546 5541 5544 5548 5540 5535 5538 5546 5555 5554
5540 5538 5536 5535 5535 5535 5533 5532 5533 5530 5528 5524 5524 5523 5521 5525 5523 5524 5531 5540 5535 5536 5540 5539 5543 5547 5555 5563 5565 5561 5556 5548 5541 5538 5538 5538 5537 5540 5550 5544 5539 5531 5530 5538 5551 5556 5553
5533 5532 5530 5527 5525 5524 5523 5522 5519 5518 5517 5514 5511 5508 5510 5509 5509 5509 5505 5502 5503 5492 5522 5535 5541 5540 5550 5539 5540 5549 5544 5532 5528 5533 5529 5516 5534 5545 5536 5530 5529 5526 5522 5530 5543 5552 5549
5528 5527 5524 5520 5517 5516 5514 5510 5509 5507 5504 5502 5499 5497 5496 5495 5495 5489 5480 5481 5481 5478 5493 5554 5549 5543 5540 5530 5534 5530 5527 5523 5521 5521 5518 5522 5532 5529 5525 5520 5516 5527 5520 5514 5527 5540 5546
5519 5516 5515 5512 5510 5507 5503 5500 5497 5494 5491 5488 5485 5479 5479 5480 5478 5469 5465 5464 5457 5455 5461 5522 5531 5532 5534 5527 5522 5528 5518 5512 5502 5509 5506 5506 5514 5515 5514 5518 5517 5519 5526 5524 5524 5519 5528
5511 5508 5503 5502 5498 5497 5492 5488 5484 5480 5477 5473 5468 5463 5459 5456 5456 5452 5451 5445 5440 5439 5407 5509 5521 5530 5525 5516 5525 5525 5520 5501 5504 5494 5491 5503 5502 5505 5507 5521 5514 5518 5517 5513 5516 5513 5516
5504 5499 5496 5493 5489 5484 5481 5476 5471 5467 5463 5458 5454 5447 5441 5437 5429 5435 5433 5428 5422 5412 5411 5486 5510 5509 5502 5505 5505 5506 5502 5503 5498 5487 5487 5496 5501 5501 5513 5518 5512 5515 5501 5504 5509 5510 5515
5496 5494 5488 5483 5479 5474 5471 5465 5460 5455 5448 5443 5439 5433 5425 5418 5415 5412 5410 5404 5396 5396 5458 5474 5476 5479 5485 5488 5488 5490 5487 5487 5491 5480 5481 5482 5490 5502 5508 5501 5506 5499 5499 5496 5510 5514 5526
5488 5484 5480 5475 5470 5464 5460 5453 5447 5439 5434 5428 5422 5415 5409 5402 5399 5392 5382 5377 5378 5420 5425 5439 5436 5452 5462 5478 5475 5475 5470 5474 5481 5480 5466 5472 5477 5497 5511 5514 5505 5503 5504 5508 5528 5528 5525
5478 5473 5468 5464 5456 5451 5448 5440 5432 5425 5417 5408 5401 5399 5388 5378 5369 5362 5347 5351 5357 5367 5365 5380 5409 5424 5442 5452 5443 5461 5458 5468 5477 5476 5476 5464 5472 5504 5514 5513 5510 5502 5493 5517 5508 5504 5511
5468 5464 5458 5452 5448 5441 5434 5425 5416 5407 5397 5387 5378 5367 5361 5356 5346 5330 5306 5331 5334 5325 5330 5349 5368 5394 5407 5415 5425 5442 5449 5464 5471 5478 5482 5477 5471 5499 5506 5501 5506 5501 5517 5500 5503 5522 5522
5460 5453 5447 5442 5437 5429 5418 5409 5397 5386 5372 5361 5346 5330 5337 5331 5323 5306 5278 5291 5313 5316 5311 5317 5333 5349 5376 5386 5400 5414 5430 5435 5435 5459 5475 5477 5471 5487 5488 5493 5507 5500 5503 5497 5510 5518 5508
5449 5442 5436 5430 5422 5414 5404 5391 5378 5363 5346 5330 5312 5304 5315 5312 5293 5280 5276 5292 5302 5307 5318 5319 5325 5325 5322 5337 5356 5397 5411 5429 5393 5413 5446 5462 5457 5466 5482 5500 5508 5512 5510 5497 5518 5517 5510
5439 5432 5425 5418 5409 5399 5387 5372 5356 5340 5323 5305 5298 5296 5300 5293 5257 5263 5276 5287 5292 5297 5300 5308 5314 5321 5315 5316 5326 5340 5354 5385 5388 5392 5412 5422 5452 5461 5470 5482 5496 5499 5500 5509 5500 5507 5520
5427 5422 5415 5407 5395 5382 5367 5352 5338 5319 5306 5288 5283 5271 5278 5278 5268 5249 5240 5277 5284 5290 5291 5296 5300 5305 5310 5307 5316 5317 5333 5361 5372 5389 5407 5408 5437 5453 5473 5495 5496 5490 5507 5509 5513 5505 5496
5417 5411 5401 5391 5375 5366 5352 5332 5319 5307 5294 5277 5275 5271 5266 5258 5269 5270 5266 5257 5274 5276 5288 5290 5284 5291 5287 5283 5298 5311 5320 5333 5362 5382 5385 5380 5409 5436 5450 5474 5493 5504 5509 5511 5502 5516 5500
5405 5399 5389 5378 5364 5348 5333 5311 5291 5293 5284 5272 5266 5270 5267 5258 5264 5265 5268 5267 5271 5275 5264 5274 5276 5276 5280 5273 5276 5287 5297 5308 5324 5357 5361 5365 5379 5397 5431 5462 5477 5489 5504 5513 5511 5513 5520
5397 5387 5376 5364 5347 5331 5315 5302 5291 5285 5277 5268 5269 5267 5267 5268 5257 5254 5266 5267 5267 5273 5275 5276 5272 5266 5274 5276 5278 5285 5287 5299 5310 5321 5338 5342 5362 5393 5433 5446 5462 5464 5504 5498 5517 5519 5525
5388 5376 5363 5349 5331 5314 5304 5292 5283 5276 5270 5263 5263 5262 5266 5260 5260 5267 5268 5268 5266 5268 5262 5271 5265 5260 5279 5271 5270 5274 5278 5293 5314 5328 5337 5342 5357 5371 5410 5437 5458 5508 5525 5523 5522 5532 5529
5377 5364 5350 5336 5319 5305 5293 5283 5276 5270 5268 5264 5261 5258 5262 5256 5263 5268 5263 5262 5262 5260 5260 5263 5270 5272 5267 5258 5254 5260 5280 5294 5329 5343 5343 5351 5347 5367 5397 5437 5455 5489 5509 5519 5514 5537 5538
5362 5349 5336 5321 5306 5293 5283 5276 5267 5265 5265 5263 5260 5257 5254 5250 5260 5261 5257 5256 5251 5245 5243 5263 5269 5264 5256 5251 5250 5246 5257 5294 5324 5357 5352 5347 5346 5361 5399 5422 5455 5483 5517 5521 5520 5530 5542
5349 5336 5322 5307 5295 5282 5275 5266 5260 5260 5260 5258 5257 5253 5250 5246 5256 5252 5244 5250 5254 5237 5236 5236 5239 5251 5253 5245 5250 5257 5262 5278 5301 5338 5338 5333 5336 5359 5384 5408 5436 5473 5471 5499 5497 5528 5531
5337 5325 5312 5296 5283 5274 5266 5258 5255 5257 5257 5256 5256 5252 5246 5245 5256 5253 5254 5244 5240 5240 5243 5234 5238 5234 5232 5249 5257 5263 5271 5301 5303 5324 5341 5351 5362 5364 5380 5402 5418 5444 5478 5487 5486 5495 5511
5327 5316 5299 5285 5275 5267 5256 5253 5252 5253 5255 5256 5250 5252 5247 5243 5248 5257 5265 5260 5252 5258 5247 5237 5244 5235 5245 5237 5250 5263 5272 5277 5284 5301 5345 5355 5387 5388 5411 5430 5441 5437 5446 5452 5459 5474 5494